Baghdad, Iraq

4:01 PM AST on February 26, 2017 (GMT +0300)
Pedro61 | | Change Station

Elev 20 ft 33.24 °N, 44.33 °E | Updated 57 seconds ago

Clear
Clear
75.7 °F
Feels Like 76 °F
N
4.5
Wind Variable Wind from NW
Gusts 7.6 mph

Today
High -- | Low -- °F
--% Chance of Precip.
Yesterday
High -- | Low -- °F
Precip. -- in
Pressure 30.09 in
Visibility -9999.0 miles
Clouds
Heat Index 76 °F
Dew Point 25 °F
Humidity 15%
Rainfall 0.05 in
Snow Depth Not available.
6:34 AM 5:57 PM
Waning Crescent, 0% visible
METAR ORBI 261300Z 32010KT 280V360 CAVOK 23/01 Q1019 NOSIG
Pressure 30.09 in
Visibility -9999.0 miles
Clouds
Heat Index 76 °F
Dew Point 25 °F
Humidity 15%
Rainfall 0.05 in
Snow Depth Not available.
6:34 AM 5:57 PM
Waning Crescent, 0% visible
METAR ORBI 261300Z 32010KT 280V360 CAVOK 23/01 Q1019 NOSIG

Get Your Daily Forecast Email!

Thanks for signing up!

Be on the lookout for a verification email in your inbox.

You'll start receiving the daily forecast at 8 AM.

×

10-Day Weather Forecast

No radar image for this location.
×

Almanac

Astronomy

Feb. 26, 2017 Rise Set
Actual Time
Civil Twilight
Nautical Twilight
Astronomical Twilight
Moon
Length of Visible Light
Length of Day
Tomorrow will be .
, % of the Moon is Illuminated

Today's Extremes

Country Highs Country Lows

Community

WunderPhotos

Upload Photos

1,962,540 photos uploaded!

WunderBlog® & News

Nearby

Air Quality

  Air Quality AQ Index Pollutant
Not available.

Snow Depth

Station Depth Elevation

Earthquake Activity

City Distance Mag. Time & Date
Minimum magnitude displayed is 2.5.

Coastal Water Temperatures

Place Temperature

Stations

Nearby Weather Stations

Station Location Temp. Windchill Dew Point Humidity Wind Precip. Elev Updated Type